User: anonymous
Location: Huntington Beach
(33.6600°N, 117.9980°W)
Time: 00:29:19
(UTC-07:00)
Language:

SL-16 R/B - Orbit

View from above orbital plane
View from above orbital plane
View from above satellite
View from above satellite

Ground track
Ground track

The orbit data is extracted from the following two-line orbital elements,

1 28353U 04021B   14233.84647059  .00000249  00000-0  15564-3 0  8239
2 28353 071.0000 079.1034 0006570 311.9833 133.7884 14.14081338526506
Epoch (UTC): 21 August 2014 20:18:55
Eccentricity: 0.0006570
inclination: 71.0000°
perigee height: 840 km
apogee height: 850 km
right ascension of ascending node: 79.1034°
argument of perigee: 311.9833°
revolutions per day: 14.14081338
mean anomaly at epoch: 133.7884°
orbit number at epoch: 52650

The dashed part of the orbit path shows where the satellite is in the earth's shadow,  

DLR